Temperature
22 23 23 23 28 29 27 27 28 28 28 27 27 27 27 27 26 25 20 19 19 19 18 19 19 19 19 19 19 19 19 18 19 19 19 19 19 19 18 18 18 18 19 19 19 19 19 18 18
22 23 23 26 29 28 27 28 28 28 27 26 26 26 27 26 23 22 20 19 19 19 18 18 19 19 19 19 19 18 18 18 19 19 18 18 18 18 18 18 18 18 19 19 18 18 18 18 18
23 24 25 29 28 28 27 28 28 28 26 27 27 26 26 25 23 21 20 19 19 19 18 18 19 19 19 19 19 18 18 18 18 19 19 19 18 18 18 18 18 18 18 19 18 18 18 18 18
23 24 27 29 28 28 28 28 28 27 27 26 27 27 25 23 22 21 20 20 19 19 18 18 19 19 19 19 19 19 18 18 18 19 19 18 18 18 18 18 18 18 18 18 18 18 17 17 18
23 26 28 28 28 28 29 28 28 28 28 27 27 27 25 22 21 20 20 20 19 19 18 18 19 19 19 19 19 19 18 18 18 18 18 18 18 18 17 17 17 18 18 18 17 17 17 17 17
25 28 28 28 27 28 29 28 28 28 28 27 27 27 25 22 21 20 20 20 20 19 18 18 19 19 19 18 18 18 18 18 18 18 18 18 18 18 17 17 18 18 18 18 17 17 17 17 17
26 28 28 27 27 28 28 28 28 29 28 27 27 27 25 22 21 20 20 20 19 19 18 18 18 18 18 18 18 18 18 18 18 18 18 18 18 17 17 17 18 18 18 18 18 17 17 17 17
24 27 27 27 27 27 28 28 28 28 28 26 26 28 26 23 21 20 20 20 19 19 19 18 18 18 18 18 18 18 18 18 18 18 18 18 18 17 17 17 18 18 18 18 17 17 17 17 17
23 27 28 28 27 28 28 28 28 27 27 26 26 26 25 23 21 20 20 20 19 19 19 19 19 18 18 18 18 18 18 18 18 18 18 18 17 17 16 17 18 18 17 17 17 17 17 17 17
25 27 28 27 28 28 28 28 28 28 28 27 27 25 23 23 22 22 21 21 20 20 19 19 19 18 18 18 18 18 17 17 17 17 17 17 16 16 16 17 17 17 17 16 16 17 17 17 17
26 27 27 27 26 26 27 27 27 28 28 28 28 26 24 23 23 23 23 23 22 21 20 19 19 19 18 18 18 18 18 17 17 17 17 17 17 16 16 16 16 16 16 16 16 16 16 17 16
26 26 26 26 25 25 26 27 27 27 28 28 27 27 25 24 24 23 23 23 22 21 20 19 19 19 18 18 18 17 17 17 17 17 17 17 17 17 16 16 16 16 16 16 16 16 16 16 17
26 26 25 25 24 25 26 26 27 27 27 27 27 26 25 25 25 25 24 23 22 21 20 20 19 19 19 18 18 17 17 17 17 17 17 17 17 17 16 16 16 16 16 16 16 17 16 16 16
25 25 25 25 25 26 26 27 27 28 27 27 27 27 27 27 26 26 24 23 23 22 21 20 20 19 19 18 18 18 17 17 17 17 17 17 17 17 16 16 16 16 16 16 17 17 16 16 16
24 25 26 26 26 26 27 27 28 28 27 27 27 27 27 27 26 25 25 24 23 22 21 20 20 20 19 19 18 18 17 17 17 17 17 17 17 17 16 16 16 16 16 16 16 16 16 16 15
26 26 26 27 27 27 26 27 29 27 27 27 28 28 26 26 26 25 24 24 23 22 21 21 20 20 19 19 19 18 18 17 17 17 17 16 16 16 16 16 16 16 16 16 16 16 16 16 16
26 26 27 27 27 27 27 27 29 27 27 27 27 28 27 26 25 25 24 23 23 22 21 20 20 19 19 19 19 18 18 17 17 17 17 16 16 16 16 16 16 16 16 16 16 16 16 16 15
25 26 26 26 27 27 26 27 28 28 27 28 28 28 27 27 26 24 23 23 22 21 21 20 19 19 18 18 18 18 18 18 17 17 17 16 16 16 16 16 16 16 16 16 16 16 16 15 15
24 24 25 26 26 26 26 27 28 28 27 27 27 28 27 26 24 22 23 23 22 21 20 20 20 19 18 18 18 18 18 18 17 17 17 17 16 16 16 16 16 16 16 15 15 16 16 15 15
22 23 24 25 26 26 26 26 28 28 28 28 28 28 27 25 23 22 22 23 22 21 21 20 20 19 18 17 18 18 18 18 17 17 17 17 16 16 16 16 15 16 16 15 15 15 16 15 15
22 22 23 24 25 26 25 26 27 28 28 27 26 26 27 25 24 23 22 21 22 21 21 20 19 18 17 17 17 17 17 17 17 17 17 17 17 17 16 16 16 16 16 15 15 15 16 15 15
21 21 21 22 23 24 25 24 27 28 28 28 27 26 25 23 23 22 21 21 21 20 20 19 18 17 17 17 17 17 17 17 17 17 17 16 16 16 16 16 16 15 15 15 15 15 16 16 15
21 19 19 19 20 22 24 24 26 27 27 27 27 26 24 23 22 22 21 21 20 20 19 19 18 17 17 17 17 17 17 17 17 17 16 16 16 16 16 16 16 15 15 15 15 15 16 15 16
22 20 19 18 20 22 24 24 25 27 26 26 26 25 23 22 22 22 21 21 20 20 20 19 18 18 18 17 17 17 17 17 16 16 16 16 16 16 16 16 15 15 15 16 15 15 15 15 16
22 20 20 20 20 22 24 23 25 26 26 25 25 25 23 22 22 22 21 21 20 20 19 19 18 18 17 17 17 17 16 16 16 15 15 15 15 15 15 15 15 15 15 16 16 16 15 15 15
23 22 21 21 22 23 23 23 26 25 25 24 24 23 23 22 22 22 22 21 20 19 19 18 18 17 17 17 17 16 16 16 15 15 15 14 15 15 14 14 14 14 15 15 15 15 15 15 15
23 23 24 23 23 22 23 24 26 25 25 25 24 23 23 23 23 22 21 21 20 19 19 18 18 18 17 17 16 16 16 16 15 15 14 14 14 14 14 13 13 13 14 14 14 14 14 15 15
23 24 23 23 22 22 23 23 24 25 25 25 25 24 24 23 23 22 21 20 20 19 19 19 18 18 17 17 16 16 16 16 15 15 15 15 14 14 13 13 13 13 13 13 13 13 14 14 14
22 22 23 23 22 22 22 23 25 24 24 24 24 24 23 23 23 22 22 21 20 20 20 19 19 18 18 17 17 16 16 16 15 15 15 15 15 14 13 13 13 13 13 13 13 13 13 13 14
20 21 21 20 20 20 20 22 25 24 24 24 24 23 23 22 22 22 21 21 21 21 20 20 19 18 18 18 17 16 16 16 16 15 15 15 15 14 14 13 13 13 13 13 12 12 12 13 13
Wind_Speed
5 4 2 3 3 6 9 5 3 4 5 5 5 4 5 6 5 4 6 7 8 12 13 15 12 12 11 12 13 13 13 13 13 11 11 10 11 12 12 11 10 9 9 9 10 10 8 8 7
5 3 3 3 3 7 8 4 3 4 5 4 4 3 3 5 5 6 8 7 10 12 12 13 13 12 11 12 12 13 13 13 12 11 10 9 10 10 11 11 11 11 10 9 10 8 7 9 9
3 3 3 2 4 7 7 5 3 4 3 1 2 3 3 4 4 6 7 10 11 11 11 11 12 11 10 10 11 12 12 13 13 12 10 10 9 10 10 10 11 12 10 9 8 7 7 8 9
3 3 2 2 7 7 6 5 2 5 2 1 1 3 4 4 3 6 11 11 11 10 10 12 11 11 10 10 11 12 13 14 14 13 11 10 9 10 10 11 11 11 10 8 7 6 5 6 8
2 3 3 5 6 5 4 3 2 4 1 1 1 3 5 5 7 9 11 10 10 10 9 11 11 11 11 10 11 13 14 14 14 13 11 10 10 11 11 11 11 10 10 9 6 5 4 6 8
2 3 4 5 5 4 3 2 2 2 2 3 2 3 5 7 8 10 10 9 9 9 9 10 11 10 10 10 12 14 14 13 13 12 12 11 11 12 12 12 11 9 9 9 8 9 10 10 8
2 2 3 6 6 5 3 1 0 0 2 2 1 2 5 7 9 10 10 8 8 8 8 8 10 11 10 10 12 14 14 13 13 13 12 11 12 12 12 13 11 10 10 10 10 11 11 10 9
2 2 5 6 7 4 3 2 2 3 1 2 3 0 5 10 12 11 9 9 8 8 8 8 9 9 11 12 13 14 14 14 14 14 13 12 13 14 13 13 12 11 10 10 11 11 11 11 10
2 4 4 6 6 5 4 3 2 1 0 3 4 1 5 14 14 12 10 9 9 8 8 8 9 10 10 12 14 14 14 14 14 14 14 13 13 13 12 13 13 13 12 11 12 11 10 8 9
3 5 2 3 5 4 3 1 1 2 1 3 5 5 9 15 15 14 13 12 12 11 10 8 8 10 10 10 12 12 13 14 12 11 12 10 10 9 12 15 13 13 12 11 11 9 6 2 5
4 5 1 3 4 2 1 1 2 2 1 2 4 8 12 14 15 14 13 11 11 11 10 9 8 9 9 8 8 8 9 11 11 11 11 9 10 10 11 11 12 12 10 10 10 7 5 6 6
4 4 3 1 3 4 3 3 4 6 3 1 2 7 13 15 15 14 12 10 10 10 10 10 9 9 9 8 7 6 7 8 8 10 11 9 7 8 9 8 9 9 6 5 5 5 6 7 7
8 4 3 5 5 6 6 8 7 9 8 6 5 9 12 14 14 13 11 10 10 10 10 10 10 9 9 8 6 7 7 7 8 9 10 9 7 8 9 8 7 7 6 6 5 6 6 7 7
3 5 6 6 8 8 9 11 10 11 7 8 10 11 12 12 12 11 11 11 12 11 11 11 11 10 10 9 9 7 7 7 8 9 10 10 8 8 8 9 8 8 6 5 6 7 6 6 6
5 7 9 10 11 7 8 13 14 14 8 10 12 12 11 11 11 11 10 10 10 10 11 12 12 12 12 11 10 7 7 8 8 9 11 11 10 10 9 9 10 9 8 7 7 8 6 6 6
6 8 8 4 6 7 8 12 5 2 8 12 13 12 12 12 12 10 10 10 10 10 11 11 11 12 13 11 11 8 8 8 8 9 9 11 11 11 9 9 9 9 8 7 7 7 7 6 5
7 8 8 4 1 3 7 10 4 1 5 10 12 13 13 13 12 9 9 10 10 11 11 12 12 12 12 11 10 8 7 7 7 9 9 11 12 13 11 9 10 11 8 7 8 8 7 7 5
6 8 9 7 2 5 9 11 11 7 7 10 11 13 13 13 10 7 7 7 8 10 10 9 10 9 9 9 8 7 6 6 7 9 10 12 12 13 11 9 11 12 9 8 8 9 7 7 6
7 9 11 9 7 9 12 13 13 11 8 11 12 13 13 11 7 6 6 5 5 6 8 8 9 9 8 7 7 7 7 8 9 9 12 14 14 14 11 8 11 11 11 11 11 9 9 8 8
9 11 13 10 6 9 13 15 14 14 13 12 12 12 13 10 10 9 7 5 5 5 6 8 9 10 9 7 7 6 6 6 8 8 10 13 14 14 11 10 8 11 11 13 13 11 9 8 9
10 10 9 9 12 11 12 16 14 13 12 11 11 10 11 12 13 11 8 6 5 5 6 7 9 10 10 9 7 6 5 5 6 8 9 11 13 13 11 9 8 11 13 12 14 15 14 11 11
10 4 7 10 11 10 7 12 12 12 13 13 12 10 10 11 12 11 9 7 6 6 7 7 8 9 10 10 9 10 7 7 8 7 8 10 13 14 12 10 9 12 13 14 14 16 14 13 12
7 1 4 8 10 13 13 12 11 8 11 11 8 8 9 11 13 12 9 7 7 7 7 7 8 9 9 10 9 9 8 6 5 6 7 9 10 12 13 14 12 14 14 15 14 15 15 13 13
5 3 1 4 8 12 12 10 9 6 5 6 6 4 7 11 13 11 9 8 7 7 6 6 7 8 8 9 9 9 8 7 6 7 6 6 6 8 13 15 14 14 13 13 12 12 15 13 14
7 4 2 4 7 7 3 6 7 5 6 8 10 4 6 11 12 11 10 9 8 7 7 7 7 7 8 8 8 8 7 7 7 7 7 7 6 6 9 12 13 13 12 10 8 8 10 13 14
10 11 8 5 5 3 5 7 3 3 5 5 5 1 6 10 11 10 9 8 8 9 9 8 8 7 7 7 7 7 7 5 5 6 6 6 6 6 7 8 10 11 11 10 9 8 8 11 13
7 9 8 10 10 8 8 6 6 1 1 2 4 3 4 7 9 9 8 8 8 10 10 10 9 8 8 7 6 6 5 5 5 6 6 5 6 5 7 7 7 8 10 10 11 8 8 10 12
6 5 6 8 8 11 10 10 8 5 1 2 3 3 1 3 5 7 8 8 9 10 11 11 10 10 9 7 6 4 5 5 4 5 6 6 6 6 7 7 7 8 8 9 10 10 9 8 8
5 8 10 9 7 8 7 3 0 1 4 4 5 5 5 5 4 4 6 9 10 10 11 12 12 11 10 9 7 6 5 5 5 5 6 6 6 7 8 8 8 9 9 9 8 8 10 8 6
5 7 9 10 11 7 6 5 1 2 0 2 4 6 7 7 8 7 7 8 10 12 13 13 13 13 11 10 9 7 6 5 5 5 6 7 7 7 8 8 8 8 9 9 9 9 8 6 3
Wind_Direction
273 299 264 245 178 90 75 72 49 51 55 63 66 68 56 39 14 46 116 141 149 152 156 159 163 159 154 155 159 158 154 148 144 140 133 132 133 136 136 128 116 107 96 79 72 74 82 91 95
312 293 255 246 120 90 75 63 54 53 87 96 84 66 65 66 55 97 134 138 150 151 157 159 160 162 158 158 160 160 158 156 151 144 137 136 132 130 128 124 114 102 95 85 74 74 90 92 90
273 261 259 170 92 75 78 64 60 108 114 25 76 62 41 58 84 119 127 139 145 146 154 146 159 163 162 161 160 158 157 155 148 141 142 142 137 132 126 123 114 105 99 95 88 87 99 90 87
254 233 219 158 108 87 79 67 89 145 163 66 58 84 82 66 85 117 134 141 139 145 151 145 165 164 165 163 159 155 154 153 146 143 146 142 139 133 129 123 113 107 104 101 99 96 98 95 89
264 248 171 141 122 108 91 59 109 161 138 122 53 80 100 90 100 124 140 144 143 144 149 148 163 165 166 162 157 155 154 151 144 143 139 135 136 130 126 121 113 110 112 114 113 105 107 108 87
270 250 182 155 135 126 117 121 151 193 159 154 162 112 102 114 130 136 140 147 141 141 149 148 153 161 164 158 153 153 152 147 140 137 130 129 131 128 125 120 114 115 118 119 107 95 101 100 85
293 240 166 147 149 147 111 96 69 334 200 178 181 112 126 138 142 146 143 141 136 142 150 151 152 157 159 152 152 152 148 143 138 134 131 128 128 126 122 118 120 123 124 117 107 103 101 93 82
319 222 169 172 172 146 115 119 55 354 24 139 197 48 117 147 150 152 148 147 147 154 160 156 152 153 153 151 153 153 148 144 139 134 133 128 128 128 128 128 126 127 121 111 112 107 97 85 75
266 246 221 199 192 152 124 125 104 3 116 186 199 61 81 139 153 160 161 164 164 167 170 164 158 153 151 150 151 154 149 146 144 140 139 148 150 142 145 119 129 124 113 110 113 103 97 99 96
261 261 263 196 189 157 135 91 125 204 191 195 188 155 136 155 169 177 179 178 176 176 175 173 165 159 160 155 156 160 156 156 160 152 153 159 144 144 125 127 133 121 114 116 115 116 142 195 101
255 267 262 195 204 223 228 261 229 237 172 167 178 174 167 177 187 193 191 185 179 174 171 174 171 169 164 164 164 164 158 162 163 162 161 160 148 146 141 145 144 138 146 128 138 161 88 74 70
252 261 263 231 193 214 231 252 254 240 240 186 201 171 176 191 199 202 199 189 182 179 176 172 176 173 176 171 170 174 166 169 168 171 169 167 163 161 153 157 156 155 145 134 135 109 90 79 81
246 267 250 240 220 230 241 248 261 256 246 235 209 183 188 198 206 204 200 193 192 186 184 179 182 181 177 176 176 188 183 174 173 174 178 176 174 177 162 163 157 157 153 153 143 133 97 85 74
283 276 263 251 236 239 247 255 247 253 236 216 204 193 194 201 211 204 200 201 202 195 192 184 187 185 182 180 188 192 186 178 184 186 187 183 181 185 175 166 161 165 173 164 156 133 119 104 90
258 268 259 239 235 239 252 257 245 253 233 221 211 203 202 209 216 217 211 210 212 206 202 193 192 189 189 189 187 191 194 187 189 195 193 189 185 188 187 174 175 172 171 167 160 139 126 117 117
246 250 255 232 231 223 235 261 267 288 219 224 221 214 211 218 225 223 222 219 215 213 212 202 197 197 193 190 186 188 197 196 194 194 199 196 192 191 187 180 183 181 173 167 164 163 150 143 144
232 249 261 262 215 228 242 264 261 328 237 233 230 228 222 222 226 226 227 228 224 219 217 210 206 202 197 191 188 185 198 199 204 199 199 203 203 194 186 190 185 186 186 178 177 181 168 159 155
256 263 267 269 278 292 268 268 275 269 252 251 242 235 225 225 219 215 218 228 228 225 222 213 204 191 186 186 190 181 198 216 215 205 201 207 209 204 194 195 196 193 190 188 191 188 183 169 173
291 280 274 275 289 290 277 275 271 265 252 253 250 240 227 221 198 187 182 188 202 208 207 196 190 176 170 177 187 188 199 211 219 215 207 205 207 203 202 211 208 199 198 198 198 191 191 182 178
264 266 267 273 276 289 283 278 272 262 260 260 263 253 225 208 194 181 171 161 173 179 183 185 185 179 178 183 192 200 199 211 217 219 212 207 204 199 197 209 225 210 210 211 209 195 192 191 193
258 265 279 293 305 281 285 276 262 255 253 252 253 252 224 202 198 184 175 163 159 166 172 181 185 182 182 180 183 186 187 198 203 214 211 207 200 191 183 194 222 234 220 218 220 208 195 195 202
262 298 319 315 305 285 280 286 276 274 270 258 252 241 222 200 196 183 176 166 160 160 167 175 180 184 185 184 191 197 208 215 215 211 207 208 202 195 186 194 215 237 236 226 222 216 204 199 198
243 64 348 317 299 284 268 271 276 271 270 270 271 252 225 200 191 181 171 156 146 146 156 166 171 176 181 195 206 220 231 231 224 216 212 209 205 203 201 205 211 227 234 231 223 214 207 202 201
172 145 220 255 263 262 259 263 279 274 288 308 317 284 210 189 182 173 158 155 151 150 154 163 170 172 180 195 207 219 222 217 214 211 208 208 211 215 215 213 215 219 222 222 219 214 210 211 208
198 208 252 232 224 246 226 251 269 314 326 319 319 312 185 176 174 171 172 174 171 169 170 171 170 168 177 190 202 211 214 218 222 221 214 209 209 216 219 216 215 213 209 200 187 193 210 216 216
220 225 231 249 250 232 198 239 250 1 320 333 351 87 165 173 180 184 188 188 185 185 186 183 177 171 175 195 202 204 204 217 229 223 217 208 209 210 207 208 208 207 198 185 172 167 202 217 217
237 228 243 260 267 270 252 246 266 258 340 22 45 95 169 190 199 205 206 205 199 196 194 191 185 180 183 196 198 204 209 214 218 219 212 205 207 205 201 197 195 192 186 180 169 167 189 213 215
274 267 230 243 260 260 255 247 247 234 37 39 50 51 45 239 236 229 220 220 215 207 199 193 191 187 187 192 194 202 210 204 211 208 198 198 196 189 178 185 190 191 186 179 170 162 167 191 208
276 246 250 256 268 270 275 250 248 75 62 60 54 35 14 2 340 290 241 224 217 210 203 196 190 189 187 188 190 197 201 203 205 204 194 192 187 180 185 190 197 196 189 179 166 159 156 165 186
287 299 278 261 256 250 263 266 15 263 288 53 23 9 354 344 334 316 283 242 219 211 206 202 196 188 187 185 185 198 198 200 211 204 194 190 189 192 195 193 203 196 181 175 168 162 156 156 185
Height
1499 1499 1498 1499 1497 1498 1504 1502 1498 1499 1498 1501 1501 1501 1500 1501 1504 1511 1512 1511 1512 1514 1515 1516 1519 1521 1522 1523 1525 1526 1528 1529 1530 1531 1532 1532 1533 1534 1534 1535 1535 1535 1535 1535 1535 1535 1535 1535 1535
1500 1499 1501 1500 1496 1505 1508 1501 1499 1499 1501 1503 1503 1503 1502 1505 1509 1511 1511 1511 1513 1515 1517 1518 1519 1522 1523 1524 1525 1527 1528 1530 1531 1532 1533 1533 1534 1535 1536 1536 1536 1536 1536 1536 1537 1536 1536 1536 1536
1500 1500 1503 1497 1499 1504 1507 1500 1499 1501 1503 1503 1503 1504 1505 1508 1511 1512 1512 1512 1514 1516 1518 1519 1520 1522 1524 1525 1526 1528 1529 1531 1532 1533 1533 1534 1535 1536 1536 1537 1537 1536 1537 1537 1538 1538 1538 1538 1538
1502 1503 1502 1498 1504 1502 1501 1499 1500 1502 1504 1504 1504 1504 1507 1510 1511 1512 1512 1514 1515 1517 1518 1519 1521 1523 1524 1525 1527 1528 1529 1531 1532 1533 1534 1535 1536 1536 1537 1537 1537 1537 1538 1539 1539 1539 1540 1540 1539
1503 1502 1498 1503 1504 1502 1500 1501 1502 1501 1501 1503 1503 1503 1508 1511 1511 1512 1513 1515 1516 1518 1519 1520 1521 1523 1525 1526 1527 1528 1529 1531 1533 1533 1535 1536 1536 1537 1537 1538 1538 1538 1539 1539 1540 1540 1541 1541 1540
1504 1499 1500 1506 1505 1502 1501 1503 1503 1502 1502 1504 1505 1504 1508 1511 1511 1513 1514 1516 1517 1518 1519 1520 1521 1523 1525 1526 1527 1529 1530 1532 1533 1534 1535 1537 1537 1537 1538 1538 1539 1540 1540 1540 1540 1541 1541 1541 1541
1505 1500 1500 1504 1506 1503 1503 1504 1502 1501 1502 1504 1505 1504 1508 1511 1512 1513 1514 1516 1517 1518 1520 1521 1522 1523 1525 1526 1528 1529 1531 1532 1534 1535 1536 1537 1538 1539 1539 1539 1540 1540 1541 1541 1541 1542 1542 1542 1541
1505 1501 1503 1503 1505 1503 1503 1503 1503 1502 1502 1505 1506 1503 1506 1511 1511 1513 1515 1516 1517 1519 1520 1522 1523 1525 1526 1527 1528 1529 1531 1532 1534 1535 1537 1538 1539 1539 1540 1540 1541 1541 1542 1542 1543 1543 1543 1543 1542
1506 1503 1502 1501 1502 1502 1502 1502 1504 1504 1503 1505 1505 1506 1508 1509 1511 1513 1514 1516 1517 1518 1520 1522 1524 1525 1526 1527 1528 1529 1531 1532 1534 1535 1537 1538 1541 1541 1542 1542 1542 1542 1543 1544 1545 1545 1545 1544 1543
1505 1501 1499 1499 1499 1500 1501 1502 1503 1503 1502 1503 1504 1506 1507 1508 1510 1512 1513 1515 1516 1518 1520 1522 1524 1525 1527 1528 1528 1530 1531 1532 1534 1536 1537 1540 1542 1543 1543 1542 1543 1544 1545 1546 1547 1547 1547 1547 1547
1503 1500 1499 1500 1501 1502 1502 1503 1503 1502 1500 1501 1501 1504 1506 1508 1509 1511 1512 1514 1516 1518 1519 1521 1523 1525 1526 1527 1529 1530 1531 1532 1534 1536 1538 1540 1542 1542 1543 1544 1546 1546 1548 1549 1549 1550 1550 1550 1547
1503 1501 1501 1501 1502 1503 1503 1503 1503 1501 1500 1500 1501 1502 1504 1506 1508 1510 1512 1514 1515 1516 1518 1520 1522 1524 1526 1527 1528 1530 1531 1532 1534 1535 1538 1540 1542 1543 1544 1545 1547 1549 1550 1551 1552 1552 1552 1551 1551
1501 1500 1502 1502 1502 1502 1502 1502 1502 1499 1499 1499 1500 1501 1502 1504 1505 1508 1510 1512 1514 1515 1517 1519 1520 1523 1524 1526 1527 1529 1530 1532 1533 1534 1537 1539 1541 1543 1543 1545 1546 1548 1550 1552 1552 1554 1553 1553 1552
1501 1501 1501 1500 1500 1499 1499 1497 1499 1496 1497 1497 1498 1499 1500 1502 1503 1505 1508 1510 1512 1514 1516 1517 1519 1520 1522 1523 1525 1527 1529 1530 1531 1533 1535 1538 1540 1541 1542 1544 1545 1547 1550 1552 1553 1554 1554 1554 1554
1501 1499 1496 1496 1496 1496 1497 1494 1491 1491 1493 1495 1496 1496 1497 1499 1501 1503 1505 1508 1510 1512 1514 1515 1517 1518 1520 1522 1524 1526 1527 1529 1530 1531 1534 1536 1538 1540 1541 1543 1545 1547 1549 1552 1553 1554 1554 1555 1555
1497 1495 1495 1490 1491 1492 1497 1494 1485 1488 1490 1491 1492 1493 1495 1497 1498 1500 1503 1505 1507 1509 1511 1513 1513 1515 1518 1519 1521 1524 1526 1527 1528 1530 1532 1534 1536 1539 1540 1542 1544 1546 1549 1551 1552 1553 1554 1555 1556
1495 1494 1493 1490 1489 1490 1492 1490 1485 1489 1489 1489 1489 1490 1492 1494 1495 1497 1499 1502 1504 1505 1507 1509 1510 1512 1514 1516 1518 1520 1523 1524 1526 1527 1529 1532 1535 1537 1538 1540 1542 1544 1547 1549 1551 1553 1554 1555 1556
1499 1494 1493 1492 1488 1490 1490 1488 1484 1485 1488 1486 1486 1487 1488 1489 1492 1494 1495 1497 1499 1501 1503 1505 1506 1507 1509 1512 1514 1516 1519 1520 1522 1524 1525 1528 1531 1534 1536 1538 1540 1543 1544 1546 1548 1551 1552 1553 1554
1500 1498 1496 1491 1489 1490 1488 1485 1481 1480 1483 1483 1482 1483 1484 1487 1489 1490 1492 1493 1495 1497 1499 1500 1502 1503 1504 1507 1509 1512 1514 1516 1518 1520 1521 1523 1526 1529 1532 1535 1538 1540 1542 1543 1545 1547 1551 1552 1554
1502 1501 1496 1490 1487 1489 1486 1482 1477 1477 1478 1478 1477 1478 1480 1484 1487 1488 1489 1491 1493 1494 1496 1497 1498 1499 1500 1503 1505 1508 1511 1513 1514 1515 1516 1518 1521 1524 1527 1530 1534 1536 1538 1540 1542 1544 1547 1550 1552
1503 1502 1498 1496 1490 1485 1487 1483 1474 1470 1472 1474 1475 1476 1476 1480 1484 1486 1488 1490 1491 1492 1494 1496 1496 1497 1498 1500 1502 1505 1507 1509 1511 1511 1512 1514 1516 1518 1521 1524 1528 1532 1534 1536 1539 1540 1543 1546 1550
1505 1502 1502 1501 1499 1492 1489 1491 1474 1468 1467 1468 1471 1473 1474 1477 1480 1484 1487 1489 1490 1491 1492 1494 1494 1496 1497 1499 1500 1502 1504 1506 1508 1508 1509 1511 1513 1514 1516 1518 1521 1525 1529 1532 1534 1536 1538 1542 1545
1500 1503 1506 1507 1506 1499 1487 1489 1474 1465 1467 1464 1466 1469 1471 1474 1477 1482 1485 1488 1490 1491 1492 1493 1493 1494 1496 1498 1499 1500 1501 1503 1504 1505 1505 1507 1508 1510 1511 1513 1515 1519 1523 1526 1529 1531 1534 1537 1541
1495 1501 1506 1509 1507 1503 1484 1486 1479 1464 1465 1464 1465 1467 1469 1471 1475 1480 1483 1485 1487 1489 1490 1492 1492 1493 1494 1495 1496 1497 1498 1499 1500 1501 1502 1503 1504 1505 1506 1508 1511 1513 1516 1520 1524 1526 1530 1533 1537
1494 1503 1512 1511 1506 1495 1480 1485 1476 1462 1464 1465 1465 1465 1467 1470 1474 1478 1481 1484 1486 1488 1490 1491 1492 1492 1493 1494 1494 1495 1496 1497 1498 1498 1498 1499 1500 1500 1501 1503 1505 1507 1510 1514 1517 1520 1524 1528 1532
1488 1492 1504 1506 1500 1488 1484 1482 1467 1464 1465 1465 1465 1465 1468 1471 1474 1478 1481 1483 1485 1487 1488 1489 1490 1491 1491 1492 1494 1494 1494 1494 1495 1495 1496 1496 1496 1497 1498 1499 1501 1503 1505 1507 1511 1514 1518 1523 1528
1484 1485 1481 1487 1486 1492 1480 1471 1465 1461 1463 1464 1465 1467 1469 1472 1475 1477 1480 1482 1484 1485 1486 1487 1488 1489 1489 1491 1491 1492 1492 1492 1493 1493 1493 1493 1494 1494 1495 1497 1498 1499 1501 1502 1504 1508 1513 1518 1523
1482 1478 1482 1484 1489 1489 1478 1475 1471 1462 1463 1464 1465 1467 1470 1472 1474 1476 1477 1479 1481 1483 1484 1485 1486 1487 1487 1488 1489 1489 1490 1491 1491 1491 1491 1492 1492 1493 1494 1495 1496 1497 1497 1498 1498 1501 1506 1512 1517
1484 1483 1479 1477 1480 1488 1487 1479 1462 1464 1464 1465 1466 1468 1471 1472 1473 1474 1475 1476 1477 1479 1480 1481 1482 1484 1485 1485 1487 1488 1489 1489 1490 1490 1490 1491 1491 1492 1493 1494 1495 1496 1496 1497 1496 1497 1500 1507 1512
1488 1485 1484 1492 1489 1487 1492 1483 1461 1464 1465 1466 1466 1468 1470 1471 1472 1472 1472 1472 1472 1474 1476 1477 1479 1481 1482 1482 1484 1486 1487 1487 1488 1489 1489 1490 1490 1491 1492 1493 1493 1494 1495 1496 1497 1498 1499 1503 1509